Year,Month,Day,Hour,Minute,Value (Times are PST for temperature in C)
2006,12,11,09,02,9.00
2006,12,11,09,03,9.00
2006,12,11,09,04,9.00
2006,12,11,09,05,9.00
2006,12,11,09,06,9.00
2006,12,11,09,07,9.00
2006,12,11,09,08,9.00
2006,12,11,09,10,9.00
2006,12,11,09,11,9.00
2006,12,11,09,12,9.00
2006,12,11,09,13,9.10
2006,12,11,09,14,9.10
2006,12,11,09,15,9.10
2006,12,11,09,16,9.10
2006,12,11,09,17,9.10
2006,12,11,09,18,9.10
2006,12,11,09,19,9.10
2006,12,11,09,20,9.10
2006,12,11,09,21,9.20
2006,12,11,09,22,9.20
2006,12,11,09,23,9.20
2006,12,11,09,24,9.20
2006,12,11,09,25,9.20
2006,12,11,09,26,9.20
2006,12,11,09,27,9.20
2006,12,11,09,28,9.20
2006,12,11,09,29,9.30
2006,12,11,09,30,9.30
2006,12,11,09,31,9.30
2006,12,11,09,32,9.30
2006,12,11,09,33,9.30
2006,12,11,09,34,9.30
2006,12,11,09,35,9.30
2006,12,11,09,36,9.30
2006,12,11,09,37,9.30
2006,12,11,09,39,9.30
2006,12,11,09,40,9.30
2006,12,11,09,41,9.30
2006,12,11,09,42,9.30
2006,12,11,09,43,9.30
2006,12,11,09,44,9.30
2006,12,11,09,46,9.30
2006,12,11,09,47,9.30
2006,12,11,09,48,9.30
2006,12,11,09,49,9.30
2006,12,11,09,50,9.30
2006,12,11,09,51,9.30
2006,12,11,09,52,9.30
2006,12,11,09,53,9.30
2006,12,11,09,54,9.30
2006,12,11,09,55,9.30
2006,12,11,09,56,9.30
2006,12,11,09,57,9.30
2006,12,11,09,58,9.30
2006,12,11,09,59,9.30
2006,12,11,10,01,9.30
2006,12,11,10,02,9.30
2006,12,11,10,03,9.30
2006,12,11,10,05,9.30
2006,12,11,10,06,9.30
2006,12,11,10,07,9.40
2006,12,11,10,08,9.40
2006,12,11,10,09,9.40
2006,12,11,10,10,9.40
2006,12,11,10,11,9.40
2006,12,11,10,12,9.40
2006,12,11,10,13,9.40
2006,12,11,10,14,9.30
2006,12,11,10,15,9.30
2006,12,11,10,17,9.30
2006,12,11,10,18,9.30
2006,12,11,10,19,9.30
2006,12,11,10,20,9.30
2006,12,11,10,21,9.30
2006,12,11,10,22,9.30
2006,12,11,10,24,9.30
2006,12,11,10,25,9.30
2006,12,11,10,26,9.30
2006,12,11,10,28,9.50
2006,12,11,10,29,9.50
2006,12,11,10,30,9.50
2006,12,11,10,31,9.50
2006,12,11,10,32,9.50
2006,12,11,10,33,9.50
2006,12,11,10,34,9.50
2006,12,11,10,35,9.50
2006,12,11,10,36,9.50
2006,12,11,10,37,9.60
2006,12,11,10,39,9.60
2006,12,11,10,40,9.60
2006,12,11,10,41,9.60
2006,12,11,10,42,9.60
2006,12,11,10,43,9.60
2006,12,11,10,45,9.70
2006,12,11,10,46,9.70
2006,12,11,10,47,9.70
2006,12,11,10,48,9.70
2006,12,11,10,50,9.70
2006,12,11,10,51,9.70
2006,12,11,10,53,9.70
2006,12,11,10,54,9.70
2006,12,11,10,55,9.70
2006,12,11,10,56,9.70
2006,12,11,10,58,9.70
2006,12,11,11,00,9.70
2006,12,11,11,01,9.70
2006,12,11,11,02,9.70
2006,12,11,11,03,9.70
2006,12,11,11,04,9.70
2006,12,11,11,05,9.70
2006,12,11,11,06,9.70
2006,12,11,11,07,9.70
2006,12,11,11,08,9.70
2006,12,11,11,09,9.70
2006,12,11,11,11,9.70
2006,12,11,11,12,9.70
2006,12,11,11,13,9.70
2006,12,11,11,14,9.70
2006,12,11,11,15,9.70
2006,12,11,11,16,9.70
2006,12,11,11,17,9.70
2006,12,11,11,18,9.70
2006,12,11,11,19,9.70
2006,12,11,11,21,9.70
2006,12,11,11,22,9.70
2006,12,11,11,23,9.70
2006,12,11,11,24,9.70
2006,12,11,11,25,9.70
2006,12,11,11,26,9.70
2006,12,11,11,27,9.70
2006,12,11,11,28,9.70
2006,12,11,11,29,9.70
2006,12,11,11,30,9.70
2006,12,11,11,31,9.70
2006,12,11,11,33,9.70
2006,12,11,11,34,9.70
2006,12,11,11,35,9.70
2006,12,11,11,36,9.70
2006,12,11,11,37,9.70
2006,12,11,11,38,9.70
2006,12,11,11,39,9.70
2006,12,11,11,40,9.70
2006,12,11,11,41,9.70
2006,12,11,11,42,9.80
2006,12,11,11,43,9.80
2006,12,11,11,45,9.80
2006,12,11,11,46,9.80
2006,12,11,11,47,9.80
2006,12,11,11,48,9.80
2006,12,11,11,49,9.80
2006,12,11,11,51,9.80
2006,12,11,11,52,9.80
2006,12,11,11,53,9.80
2006,12,11,11,55,9.80
2006,12,11,11,56,9.80
2006,12,11,11,57,10.20
2006,12,11,11,59,10.20
2006,12,11,12,01,10.20
2006,12,11,12,02,10.20
2006,12,11,12,03,10.20
2006,12,11,12,04,10.20
2006,12,11,12,05,10.20
2006,12,11,12,06,10.20
2006,12,11,12,07,10.20
2006,12,11,12,08,10.20
2006,12,11,12,09,10.20
2006,12,11,12,10,10.20
2006,12,11,12,11,10.20
2006,12,11,12,12,10.20
2006,12,11,12,13,10.20
2006,12,11,12,15,10.20
2006,12,11,12,16,10.20
2006,12,11,12,17,10.20
2006,12,11,12,18,10.20
2006,12,11,12,20,10.20
2006,12,11,12,21,10.20
2006,12,11,12,22,10.20
2006,12,11,12,24,10.20
2006,12,11,12,26,10.20
2006,12,11,12,27,10.20
2006,12,11,12,28,10.20
2006,12,11,12,29,10.20
2006,12,11,12,30,10.20
2006,12,11,12,31,10.20
2006,12,11,12,32,10.20
2006,12,11,12,33,10.20
2006,12,11,12,34,10.20
2006,12,11,12,35,10.20
2006,12,11,12,36,10.20
2006,12,11,12,37,10.20
2006,12,11,12,38,10.20
2006,12,11,12,39,10.20
2006,12,11,12,40,10.20
2006,12,11,12,41,10.20
2006,12,11,12,42,10.20
2006,12,11,12,43,11.00
2006,12,11,12,44,11.00
2006,12,11,12,45,11.00
2006,12,11,12,46,11.00
2006,12,11,12,47,11.00
2006,12,11,12,48,11.00
2006,12,11,12,50,11.00
2006,12,11,12,51,11.00
2006,12,11,12,52,11.00
2006,12,11,12,53,11.00
2006,12,11,12,54,11.00
2006,12,11,12,55,11.00
2006,12,11,12,56,11.00
2006,12,11,12,58,11.00
2006,12,11,13,00,11.00
2006,12,11,13,01,11.00
2006,12,11,13,02,11.00
2006,12,11,13,04,11.50
2006,12,11,13,05,11.50
2006,12,11,13,06,11.50
2006,12,11,13,07,11.50
2006,12,11,13,08,11.50
2006,12,11,13,09,11.50
2006,12,11,13,10,11.50
2006,12,11,13,11,11.70
2006,12,11,13,12,11.70
2006,12,11,13,13,11.70
2006,12,11,13,15,11.70
2006,12,11,13,16,11.70
2006,12,11,13,17,11.70
2006,12,11,13,18,11.40
2006,12,11,13,20,11.40
2006,12,11,13,21,11.40
2006,12,11,13,22,11.40
2006,12,11,13,23,11.40
2006,12,11,13,24,11.40
2006,12,11,13,25,11.40
2006,12,11,13,26,11.40
2006,12,11,13,27,11.40
2006,12,11,13,28,11.40
2006,12,11,13,29,11.40
2006,12,11,13,30,11.40
2006,12,11,13,31,12.10
2006,12,11,13,32,12.10
2006,12,11,13,33,12.10
2006,12,11,13,35,12.10
2006,12,11,13,36,12.10
2006,12,11,13,37,12.10
2006,12,11,13,38,12.10
2006,12,11,13,39,11.90
2006,12,11,13,40,11.90
2006,12,11,13,41,11.90
2006,12,11,13,42,11.90
2006,12,11,13,43,11.90
2006,12,11,13,44,11.90
2006,12,11,13,45,11.90
2006,12,11,13,46,11.90
2006,12,11,13,48,11.80
2006,12,11,13,49,11.80
2006,12,11,13,50,11.80
2006,12,11,13,51,11.80
2006,12,11,13,52,11.80
2006,12,11,13,53,11.80
2006,12,11,13,55,12.20
2006,12,11,13,56,12.20
2006,12,11,13,58,12.20
2006,12,11,14,00,12.20
2006,12,11,14,01,12.20
2006,12,11,14,02,12.20
2006,12,11,14,04,12.20
2006,12,11,14,05,12.20
2006,12,11,14,06,12.20
2006,12,11,14,07,12.10
2006,12,11,14,08,12.10
2006,12,11,14,09,12.10
2006,12,11,14,10,12.10
2006,12,11,14,11,12.10
2006,12,11,14,12,12.10
2006,12,11,14,14,12.10
2006,12,11,14,16,11.70
2006,12,11,14,17,11.70
2006,12,11,14,18,11.70
2006,12,11,14,20,11.70
2006,12,11,14,21,11.70
2006,12,11,14,22,11.70
2006,12,11,14,23,11.20
2006,12,11,14,24,11.20
2006,12,11,14,25,11.20
2006,12,11,14,26,11.20
2006,12,11,14,27,11.20
2006,12,11,14,28,11.20
2006,12,11,14,29,11.20
2006,12,11,14,30,11.20
2006,12,11,14,31,11.80
2006,12,11,14,32,11.80
2006,12,11,14,33,11.80
2006,12,11,14,34,11.80
2006,12,11,14,35,11.80
2006,12,11,14,36,11.80
2006,12,11,14,37,11.80
2006,12,11,14,38,11.80
2006,12,11,14,39,11.80
2006,12,11,14,40,11.80
2006,12,11,14,49,11.30
2006,12,11,14,50,11.20
2006,12,11,14,51,11.20
2006,12,11,14,52,11.20
2006,12,11,14,53,11.20
2006,12,11,14,54,11.20
2006,12,11,14,55,11.20
2006,12,11,14,56,11.20
2006,12,11,14,57,11.20
2006,12,11,14,58,11.10
2006,12,11,14,59,11.10
2006,12,11,15,00,11.10
2006,12,11,15,01,11.10
2006,12,11,15,02,11.10
2006,12,11,15,03,11.10
2006,12,11,15,04,11.10
2006,12,11,15,05,11.10
2006,12,11,15,07,10.80
2006,12,11,15,08,10.80
2006,12,11,15,09,10.80
2006,12,11,15,10,10.80
2006,12,11,15,11,10.80
2006,12,11,15,12,10.80
2006,12,11,15,13,10.80
2006,12,11,15,14,10.80
2006,12,11,15,15,10.80
2006,12,11,15,16,10.80
2006,12,11,15,17,10.80
2006,12,11,15,18,10.80
2006,12,11,15,19,11.00
2006,12,11,15,20,11.00
2006,12,11,15,21,11.00
2006,12,11,15,22,11.00
2006,12,11,15,23,11.00
2006,12,11,15,24,11.00
2006,12,11,15,25,11.00
2006,12,11,15,26,11.00
2006,12,11,15,28,10.60
2006,12,11,15,29,10.60
2006,12,11,15,30,10.60
2006,12,11,15,31,10.60
2006,12,11,15,32,10.60
2006,12,11,15,33,10.60
2006,12,11,15,34,10.60
2006,12,11,15,35,10.70
2006,12,11,15,36,10.70
2006,12,11,15,37,10.70
2006,12,11,15,38,10.70
2006,12,11,15,39,10.70
2006,12,11,15,40,10.70
2006,12,11,15,41,10.70
2006,12,11,15,42,10.70
2006,12,11,15,43,10.50
2006,12,11,15,44,10.50
2006,12,11,15,45,10.50
2006,12,11,15,46,10.50
2006,12,11,15,47,10.50
2006,12,11,15,48,10.50
2006,12,11,15,49,10.50
2006,12,11,15,50,10.50
2006,12,11,15,51,10.50
2006,12,11,15,53,10.50
2006,12,11,15,54,10.50
2006,12,11,15,55,9.80
2006,12,11,15,56,9.80
2006,12,11,15,57,9.80
2006,12,11,15,58,9.80
2006,12,11,15,59,9.80
2006,12,11,16,00,9.80
2006,12,11,16,01,9.80
2006,12,11,16,02,9.80
2006,12,11,16,03,9.60
2006,12,11,16,04,9.60
2006,12,11,16,05,9.60
2006,12,11,16,06,9.60
2006,12,11,16,07,9.60
2006,12,11,16,08,9.60
2006,12,11,16,09,9.60
2006,12,11,16,10,9.60
2006,12,11,16,11,9.50
2006,12,11,16,12,9.50
2006,12,11,16,13,9.50
2006,12,11,16,14,9.50
2006,12,11,16,15,9.50
2006,12,11,16,16,9.50
2006,12,11,16,17,9.50
2006,12,11,16,18,9.50
2006,12,11,16,19,9.40
2006,12,11,16,20,9.40
2006,12,11,16,21,9.40
2006,12,11,16,22,9.40
2006,12,11,16,23,9.40
2006,12,11,16,25,9.40
2006,12,11,16,26,9.40
2006,12,11,16,27,9.40
2006,12,11,16,28,9.40
2006,12,11,16,29,9.40
2006,12,11,16,30,9.40
2006,12,11,16,31,9.30
2006,12,11,16,32,9.30
2006,12,11,16,33,9.30
2006,12,11,16,34,9.30
2006,12,11,16,35,9.30
2006,12,11,16,36,9.30
2006,12,11,16,37,9.30
2006,12,11,16,38,8.90
2006,12,11,16,39,8.90
2006,12,11,16,41,8.90
2006,12,11,16,42,8.90
2006,12,11,16,43,8.90
2006,12,11,16,44,8.90
2006,12,11,16,45,8.90
2006,12,11,16,46,8.80
2006,12,11,16,47,8.80
2006,12,11,16,48,8.80
2006,12,11,16,49,8.80
2006,12,11,16,50,8.80
2006,12,11,16,51,8.80
2006,12,11,16,52,8.80
2006,12,11,16,53,8.80
2006,12,11,16,54,9.00
2006,12,11,16,55,9.00
2006,12,11,16,56,9.00
2006,12,11,16,57,9.00
2006,12,11,16,58,9.00
2006,12,11,16,59,9.00
2006,12,11,17,00,9.00
2006,12,11,17,01,9.00
2006,12,11,17,02,9.00
2006,12,11,17,03,9.00
2006,12,11,17,05,9.00
2006,12,11,17,06,9.00
2006,12,11,17,07,9.30
2006,12,11,17,08,9.30
2006,12,11,17,09,9.30
2006,12,11,17,10,9.30
2006,12,11,17,11,9.30
2006,12,11,17,12,9.30
2006,12,11,17,13,9.30
2006,12,11,17,14,9.50
2006,12,11,17,15,9.50
2006,12,11,17,17,9.50
2006,12,11,17,18,9.50
2006,12,11,17,19,9.50
2006,12,11,17,20,9.50
2006,12,11,17,21,9.50
2006,12,11,17,22,9.30
2006,12,11,17,23,9.30
2006,12,11,17,24,9.30
2006,12,11,17,25,9.30
2006,12,11,17,27,9.30
2006,12,11,17,28,9.30
2006,12,11,17,29,9.30
2006,12,11,17,30,9.20
2006,12,11,17,31,9.20
2006,12,11,17,32,9.20
2006,12,11,17,33,9.20
2006,12,11,17,34,9.20
2006,12,11,17,35,9.20
2006,12,11,17,36,9.20
2006,12,11,17,37,9.20
2006,12,11,17,38,9.20
2006,12,11,17,39,9.20
2006,12,11,17,40,9.20
2006,12,11,17,41,9.20
2006,12,11,17,42,9.30
2006,12,11,17,43,9.30
2006,12,11,17,44,9.30
2006,12,11,17,46,9.30
2006,12,11,17,47,9.30
2006,12,11,17,48,9.30
2006,12,11,17,49,9.30
2006,12,11,17,50,9.40
2006,12,11,17,51,9.40
2006,12,11,17,52,9.40
2006,12,11,17,53,9.40
2006,12,11,17,54,9.40
2006,12,11,17,55,9.40
2006,12,11,17,57,9.40
2006,12,11,17,58,9.50
2006,12,11,17,59,9.50
2006,12,11,18,00,9.50
2006,12,11,18,01,9.50
2006,12,11,18,02,9.50
2006,12,11,18,03,9.50
2006,12,11,18,04,9.50
2006,12,11,18,05,9.50
2006,12,11,18,06,9.60
2006,12,11,18,07,9.60
2006,12,11,18,08,9.60
2006,12,11,18,09,9.60
2006,12,11,18,10,9.60
2006,12,11,18,11,9.60
2006,12,11,18,12,9.60
2006,12,11,18,13,9.60
2006,12,11,18,14,9.60
2006,12,11,18,15,9.60
2006,12,11,18,16,9.60
2006,12,11,18,17,9.60
2006,12,11,18,19,9.30
2006,12,11,18,20,9.30
2006,12,11,18,21,9.30
2006,12,11,18,22,9.30
2006,12,11,18,23,9.30
2006,12,11,18,24,9.30
2006,12,11,18,25,9.30
2006,12,11,18,26,9.30
2006,12,11,18,27,9.30
2006,12,11,18,28,9.30
2006,12,11,18,29,9.30
2006,12,11,18,30,9.30
2006,12,11,18,31,9.30
2006,12,11,18,32,9.30
2006,12,11,18,33,9.30
2006,12,11,18,34,9.30
2006,12,11,18,35,9.30
2006,12,11,18,36,9.30
2006,12,11,18,37,9.30
2006,12,11,18,38,9.30
2006,12,11,18,39,9.30
2006,12,11,18,40,9.30
2006,12,11,18,41,9.30
2006,12,11,18,42,9.70
2006,12,11,18,44,9.70
2006,12,11,18,45,9.70
2006,12,11,18,46,9.70
2006,12,11,18,47,9.70
2006,12,11,18,48,9.70
2006,12,11,18,49,9.70
2006,12,11,18,51,9.70
2006,12,11,18,52,9.70
2006,12,11,18,53,9.70
2006,12,11,18,54,9.70
2006,12,11,18,55,9.70
2006,12,11,18,56,9.70
2006,12,11,18,58,9.70
2006,12,11,19,00,9.70
2006,12,11,19,01,9.70
2006,12,11,19,02,9.70
2006,12,11,19,03,9.70
2006,12,11,19,04,9.70
2006,12,11,19,05,9.70
2006,12,11,19,06,9.70
2006,12,11,19,07,9.70
2006,12,11,19,08,9.70
2006,12,11,19,09,9.70
2006,12,11,19,10,9.50
2006,12,11,19,11,9.50
2006,12,11,19,13,9.50
2006,12,11,19,14,9.50
2006,12,11,19,15,9.50
2006,12,11,19,16,9.50
2006,12,11,19,17,9.50
2006,12,11,19,18,9.50
2006,12,11,19,19,9.50
2006,12,11,19,20,9.50
2006,12,11,19,21,9.50
2006,12,11,19,22,9.50
2006,12,11,19,24,9.50
2006,12,11,19,25,9.50
2006,12,11,19,26,9.50
2006,12,11,19,27,9.50
2006,12,11,19,28,9.50
2006,12,11,19,29,9.50
2006,12,11,19,31,9.30
2006,12,11,19,32,9.30
2006,12,11,19,33,9.30
2006,12,11,19,34,9.30
2006,12,11,19,35,9.30
2006,12,11,19,36,9.30
2006,12,11,19,37,9.30
2006,12,11,19,38,9.30
2006,12,11,19,39,9.30
2006,12,11,19,40,9.30
2006,12,11,19,41,9.30
2006,12,11,19,42,9.30
2006,12,11,19,44,9.30
2006,12,11,19,45,9.30
2006,12,11,19,46,9.30
2006,12,11,19,47,9.30
2006,12,11,19,48,9.30
2006,12,11,19,49,9.30
2006,12,11,19,50,9.30
2006,12,11,19,51,9.30
2006,12,11,19,52,9.30
2006,12,11,19,54,9.30
2006,12,11,19,55,9.30
2006,12,11,19,56,9.30
2006,12,11,19,57,9.30
2006,12,11,19,58,9.30
2006,12,11,20,00,9.30
2006,12,11,20,01,9.30
2006,12,11,20,02,9.30
2006,12,11,20,03,9.30
2006,12,11,20,04,9.30
2006,12,11,20,05,9.30
2006,12,11,20,06,9.30
2006,12,11,20,08,9.30
2006,12,11,20,09,9.30
2006,12,11,20,10,9.30
2006,12,11,20,11,9.30
2006,12,11,20,12,9.30
2006,12,11,20,14,9.20
2006,12,11,20,15,9.20
2006,12,11,20,17,9.20
2006,12,11,20,19,9.20
2006,12,11,20,20,9.20
2006,12,11,20,21,9.20
2006,12,11,20,22,9.10
2006,12,11,20,23,9.10
2006,12,11,20,24,9.10
2006,12,11,20,25,9.10
2006,12,11,20,27,9.10
2006,12,11,20,28,9.10
2006,12,11,20,29,9.10
2006,12,11,20,30,8.70
2006,12,11,20,31,8.70
2006,12,11,20,32,8.70
2006,12,11,20,33,8.70
2006,12,11,20,34,8.70
2006,12,11,20,35,8.70
2006,12,11,20,36,8.70
2006,12,11,20,37,8.70
2006,12,11,20,38,8.70
2006,12,11,20,40,8.70
2006,12,11,20,41,8.70
2006,12,11,20,42,8.30
2006,12,11,20,43,8.30
2006,12,11,20,45,8.30
2006,12,11,20,46,8.30
2006,12,11,20,47,8.30
2006,12,11,20,48,8.30
2006,12,11,20,49,8.30
2006,12,11,20,51,8.10
2006,12,11,20,52,8.10
2006,12,11,20,54,8.10
2006,12,11,20,55,8.10
2006,12,11,20,56,8.10
2006,12,11,20,57,8.10
2006,12,11,20,58,8.40
2006,12,11,20,59,8.40
2006,12,11,21,00,8.40
2006,12,11,21,02,8.40
2006,12,11,21,03,8.40
2006,12,11,21,04,8.40
2006,12,11,21,05,8.40
2006,12,11,21,06,8.40
2006,12,11,21,07,8.40
2006,12,11,21,08,8.40
2006,12,11,21,10,8.40
2006,12,11,21,11,8.40
2006,12,11,21,12,8.40
2006,12,11,21,13,8.40
2006,12,11,21,14,8.40
2006,12,11,21,15,8.40
2006,12,11,21,16,8.40
2006,12,11,21,17,8.40
2006,12,11,21,18,8.40
2006,12,11,21,19,8.40
2006,12,11,21,20,8.40
2006,12,11,21,21,8.40
2006,12,11,21,22,8.40
2006,12,11,21,23,8.40
2006,12,11,21,24,8.40
2006,12,11,21,25,8.40
2006,12,11,21,26,8.30
2006,12,11,21,27,8.30
2006,12,11,21,28,8.30
2006,12,11,21,29,8.30
2006,12,11,21,30,8.30
2006,12,11,21,31,8.30
2006,12,11,21,32,8.30
2006,12,11,21,33,8.30
2006,12,11,21,34,8.20
2006,12,11,21,35,8.20
2006,12,11,21,36,8.20
2006,12,11,21,37,8.20
2006,12,11,21,38,8.20
2006,12,11,21,39,8.20
2006,12,11,21,40,8.20
2006,12,11,21,41,8.20
2006,12,11,21,42,8.00
2006,12,11,21,43,8.00
2006,12,11,21,44,8.00
2006,12,11,21,45,8.00
2006,12,11,21,46,8.00
2006,12,11,21,47,8.00
2006,12,11,21,49,8.00
2006,12,11,21,50,8.00
2006,12,11,21,51,8.00
2006,12,11,21,52,8.00
2006,12,11,21,53,8.00
2006,12,11,21,54,8.00
2006,12,11,21,55,7.80
2006,12,11,21,57,7.80
2006,12,11,21,58,7.80
2006,12,11,21,59,7.80
2006,12,11,22,00,7.80
2006,12,11,22,01,7.80
2006,12,11,22,02,7.80
2006,12,11,22,03,7.80
2006,12,11,22,05,7.80
2006,12,11,22,06,7.80
2006,12,11,22,07,7.80
2006,12,11,22,08,7.80
2006,12,11,22,10,7.80
2006,12,11,22,11,7.80
2006,12,11,22,12,7.80
2006,12,11,22,13,7.80
2006,12,11,22,14,7.80
2006,12,11,22,15,7.80
2006,12,11,22,16,7.80
2006,12,11,22,17,7.80
2006,12,11,22,18,7.80
2006,12,11,22,19,7.80
2006,12,11,22,20,7.80
2006,12,11,22,21,7.80
2006,12,11,22,22,7.80
2006,12,11,22,23,7.80
2006,12,11,22,24,7.80
2006,12,11,22,25,7.80
2006,12,11,22,26,7.80
2006,12,11,22,27,7.80
2006,12,11,22,28,7.80
2006,12,11,22,29,7.80
2006,12,11,22,30,7.80
2006,12,11,22,31,7.60
2006,12,11,22,32,7.60
2006,12,11,22,33,7.60
2006,12,11,22,34,7.60
2006,12,11,22,35,7.60
2006,12,11,22,36,7.60
2006,12,11,22,37,7.60
2006,12,11,22,38,7.60
2006,12,11,22,39,7.60
2006,12,11,22,41,7.60
2006,12,11,22,42,7.60
2006,12,11,22,43,7.60
2006,12,11,22,44,7.60
2006,12,11,22,45,7.60
2006,12,11,22,46,7.60
2006,12,11,22,48,7.60
2006,12,11,22,49,7.60
2006,12,11,22,50,7.60
2006,12,11,22,51,7.60
2006,12,11,22,52,7.60
2006,12,11,22,53,7.60
2006,12,11,22,54,7.60
2006,12,11,22,55,7.30
2006,12,11,22,56,7.30
2006,12,11,22,57,7.30
2006,12,11,22,58,7.30
2006,12,11,22,59,7.30
2006,12,11,23,00,7.30
2006,12,11,23,01,7.30
2006,12,11,23,02,7.30
2006,12,11,23,03,7.30
2006,12,11,23,05,7.30
2006,12,11,23,06,7.30
2006,12,11,23,07,7.10
2006,12,11,23,08,7.10
2006,12,11,23,09,7.10
2006,12,11,23,10,7.10
2006,12,11,23,11,7.10
2006,12,11,23,12,7.10
2006,12,11,23,13,7.10
2006,12,11,23,15,7.10
2006,12,11,23,16,7.10
2006,12,11,23,17,7.10
2006,12,11,23,18,7.10
2006,12,11,23,19,7.10
2006,12,11,23,20,7.10
2006,12,11,23,21,7.10
2006,12,11,23,22,7.10
2006,12,11,23,23,7.10
2006,12,11,23,24,7.10
2006,12,11,23,25,7.10
2006,12,11,23,26,7.10
2006,12,11,23,27,7.10
2006,12,11,23,28,7.10
2006,12,11,23,29,7.10
2006,12,11,23,30,7.10
2006,12,11,23,31,7.10
2006,12,11,23,32,7.10
2006,12,11,23,33,7.10
2006,12,11,23,34,7.10
2006,12,11,23,35,7.10
2006,12,11,23,36,7.10
2006,12,11,23,37,7.10
2006,12,11,23,38,7.10
2006,12,11,23,40,7.10
2006,12,11,23,41,7.10
2006,12,11,23,42,7.10
2006,12,11,23,43,7.10
2006,12,11,23,44,7.10
2006,12,11,23,45,7.10
2006,12,11,23,46,7.10
2006,12,11,23,47,7.10
2006,12,11,23,48,7.10
2006,12,11,23,49,7.10
2006,12,11,23,50,6.90
2006,12,11,23,51,6.90
2006,12,11,23,52,6.90
2006,12,11,23,53,6.90
2006,12,11,23,54,6.90
2006,12,11,23,55,6.90
2006,12,11,23,56,6.90
2006,12,11,23,57,6.90
2006,12,11,23,58,7.10
2006,12,11,23,59,7.10
